Location: Recife
(8.0585°S, 34.8848°W)
Time: 11:06:42
(UTC-03:00)

Transit 2A - Pass Details

Date: 22 April 2026
Orbit: 594 x 950 km, 66.7° (Epoch: 14 May)

Event Time Altitude Azimuth Distance (km) Brightness Sun altitude
Rises 19:05:21 0° 211° (SSW) 3,455 9.6 -27.8°
Reaches altitude 10° 19:07:51 10° 216° (SW) 2,558 9.0 -28.4°
Maximum altitude 19:13:37 49° 289° (WNW) 1,179 7.2 -29.8°
Drops below altitude 10° 19:19:38 10° 3° (N) 2,658 8.8 -31.3°
Sets 19:22:17 0° 8° (N) 3,601 9.5 -32.0°
